Regional Weather Roundup
Issued by NWS Newport/Morehead, NC

Current Version | Previous Version | Text Only | Print | Product List | Glossary Off
Versions: 1 2 3 4 5 6 7 8 9 10 11 12 13 14 15 16 17 18 19 20 21 22 23 24 25 26 27 28 29 30 31 32 33 34 35 36 37 38 39 40 41 42 43 44 45 46 47 48 49 50
000 ASUS42 KMHX 210125 RWRMHX WEATHER ROUNDUP FOR EASTERN NORTH CAROLINA NATIONAL WEATHER SERVICE NEWPORT/MOREHEAD CITY NC 800 PM EST TUE FEB 20 2018 NOTE: "FAIR" INDICATES FEW OR NO CLOUDS BELOW 12,000 FEET WITH NO SIGNIFICANT WEATHER AND/OR OBSTRUCTIONS TO VISIBILITY NCZ015>017-031-032-045>047-102-103-210200- NORTH COAST CITY SKY/WX TMP DP RH WIND PRES REMARKS EDENTON FAIR 67 64 90 S8 30.45R ELIZABETH CITY FAIR 68 66 93 S13 30.43R KITTY HAWK FAIR N/A N/A N/A CALM 30.44S MANTEO FAIR 59 59 99 SW10 30.46S $$ NCZ045>047-081-094-103-104-210200- CENTRAL COAST CITY SKY/WX TMP DP RH WIND PRES REMARKS FRISCO FAIR 66 64 93 S9 30.47F $$ NCZ095-097-098-100-101-210200- SOUTHERN COAST CITY SKY/WX TMP DP RH WIND PRES REMARKS BEAUFORT MOCLDY 67 64 90 S8 30.47S CEDAR ISLAND NOT AVBL JACKSONVILLE LGT RAIN 69 67 93 S6 30.45S PINEY ISLAND NOT AVBL WILMINGTON FAIR 68 66 93 SE5 30.45S $$ NCZ011>013-027>030-043-044-078>080-089-090>093-098-210200- COASTAL PLAIN CITY SKY/WX TMP DP RH WIND PRES REMARKS AHOSKIE LGT RAIN 58 58 100 CALM 30.43R VSB<1/4 CLINTON FAIR 69 64 83 S5 30.44S ELIZABETHTOWN NOT AVBL GOLDSBORO FAIR 70 64 82 S8 30.41R GREENVILLE FAIR 68 64 88 S12 30.44R HAVELOCK NOT AVBL KENANSVILLE FAIR 68 64 88 S5 30.45R KINSTON FAIR 70 64 83 S9 30.45R NEW BERN FAIR 67 65 93 S6 30.47R RICHLANDS FAIR 67 65 93 S5 30.46R ROCKY MOUNT FAIR 69 62 78 S8 30.42R WASHINGTON FAIR 68 65 88 S7 30.45S WHITEVILLE FAIR 68 64 87 SE6 30.44R $$ AMZ130-135-150-152-154-156-158-170-250-252-270-ANZ085-086-088-633-658-670-210200- MARINE OBSERVATIONS STATION/POSITION TIME TEMP WIND PRES WAVE SWELL AIR SEA DIR/SP/G HT/PER HT/PER (UTC) (F) (DEG/KT/KT) (MB) (FT/S) (FT/S) CHESAPEAKE LIGHT NOT AVBL 64 E VA BEACH 0050 57 52 190/ 14/ 16 1031.3 4/12 3/12 DUCK 0100 66 46 180/ 16/ 22 1030.2 2 E DUCK 0100 45 N/A 3/13 2/13 OREGON INLET 0100 60 56 170/ 7/ 10 1031.6 13E OREGON INLT 0048 47 N/A 4/11 3/11 HATTERAS CG 0100 65 58 170/ 7/ 9 1031.8 DIAMOND BUOY 0110 72 72 180/ 16/ 19 1032.2 CAPE LOOKOUT 0000 160/ 6/ 6 1032.1 BEAUFORT LAB 0100 65 58 170/ 9/ 12 1031.7 30 SE NEW RVR IN 0008 71 69 170/ 10/ 14 1031.6 30 SE NEW RVR IN 0100 69 N/A 4/ 6 2/13 27 SE WRIGHTSVLE 0008 70 69 170/ 10/ 14 1031.6 5 SE WRIGHTSVLE 0008 61 57 170/ 4/ 8 1031.0 225 S CAPE HAT 0050 72 74 110/ 14/ 16 1032.7 5/ 7 3/ 7 41 SE CHARLESTON 0110 71 68 140/ 6/ 8 1030.4 $$

USA.gov is the U.S. government's official web portal to all federal, state and local government web resources and services.